DW5274 Weather Reports


Display with metric or nautical units.
time (UTC)temp
F
wind
direction
speed
MPH
gust
MPH
rain 1hr
in
rain 24hr
in
rain mn
in
humidity
%
barometer
mb
20260903083033 57 321 0.0 0.0 0.00 0.00 0.00 81 1009.3
20260903081532 58 321 0.0 0.0 0.00 0.00 0.00 80 1009.7
20260903080012 58 321 0.0 0.0 0.00 0.00 0.00 77 1009.9
20260903074510 59 321 0.0 0.0 0.00 0.00 0.00 75 1009.7
20260903073051 59 321 0.0 0.0 0.00 0.00 0.00 71 1009.6
20260903071553 60 321 0.0 0.0 0.00 0.00 0.00 67 1009.9
20260903070029 60 321 0.0 0.0 0.00 0.00 0.00 62 1009.8
20260903064525 60 35 0.0 0.0 0.00 0.00 0.00 60 1009.6
20260903063005 61 31 0.0 0.0 0.00 0.00 0.00 59 1009.3
20260903061512 61 30 0.0 0.0 0.00 0.00 0.00 59 1009.3
20260903060046 61 21 0.0 0.0 0.00 0.00 0.00 58 1009.3
20260903054546 61 32 0.0 0.0 0.00 0.00 0.00 58 1009.3
20260903053025 61 16 0.0 0.0 0.00 0.00 0.00 57 1009.3
20260903051523 62 17 0.0 0.0 0.00 0.00 0.00 56 1009.2
20260903050017 62 24 1.0 0.0 0.00 0.00 0.00 55 1009.2
20260903044501 63 360 3.0 0.0 0.00 0.00 0.00 54 1009.1
20260903043041 63 344 5.0 0.0 0.00 0.00 0.00 53 1008.9
20260903041545 64 28 3.0 0.0 0.00 0.00 0.00 51 1008.6
20260903040019 64 360 3.0 0.0 0.00 0.00 0.00 50 1008.4
20260903034515 65 351 1.0 0.0 0.00 0.00 0.00 48 1008.2
20260903033101 66 335 1.0 0.0 0.00 0.00 0.00 47 1008.1
20260903031556 67 331 2.0 0.0 0.00 0.00 0.00 44 1007.9
20260903030038 69 336 1.0 0.0 0.00 0.00 0.00 34 1007.8
20260903024538 70 232 1.0 0.0 0.00 0.00 0.00 33 1007.2
20260903023027 70 234 1.0 0.0 0.00 0.00 0.00 31 1007.1
20260903021521 71 234 2.0 0.0 0.00 0.00 0.00 30 1006.9
20260903020006 71 227 3.0 0.0 0.00 0.00 0.00 31 1006.9
20260903014501 71 223 3.0 0.0 0.00 0.00 0.00 30 1006.8
20260903013043 72 227 5.0 0.0 0.00 0.00 0.00 29 1006.8
20260903011543 73 225 3.0 0.0 0.00 0.00 0.00 29 1006.8
20260903010030 73 227 3.0 0.0 0.00 0.00 0.00 28 1006.8
20260903004530 73 234 4.0 0.0 0.00 0.00 0.00 28 1006.8
20260903003029 74 227 5.0 0.0 0.00 0.00 0.00 28 1006.8
20260903001534 74 259 6.0 0.0 0.00 0.00 0.00 27 1006.8
20260903000036 75 221 7.0 0.0 0.00 0.00 0.00 26 1006.6
20260902234528 76 267 6.0 0.0 0.00 0.00 0.00 25 1006.6
20260902233029 76 243 5.0 0.0 0.00 0.00 0.00 26 1006.6
20260902231531 76 274 4.0 0.0 0.00 0.00 0.00 26 1006.7
20260902230028 76 237 4.0 0.0 0.00 0.00 0.00 25 1006.8
20260902224513 76 261 5.0 0.0 0.00 0.00 0.00 25 1006.9
20260902223008 76 248 6.0 0.0 0.00 0.00 0.00 25 1007.0
20260902221609 76 212 6.0 0.0 0.00 0.00 0.00 25 1007.1
20260902220059 76 217 5.0 0.0 0.00 0.00 0.00 25 1007.2
20260902214533 76 261 6.0 0.0 0.00 0.00 0.00 25 1007.2
20260902213034 76 236 6.0 0.0 0.00 0.00 0.00 25 1007.2
20260902211517 76 256 7.0 0.0 0.00 0.00 0.00 25 1007.3
20260902210014 77 244 7.0 0.0 0.00 0.00 0.00 25 1007.5
20260902204611 76 227 7.0 0.0 0.00 0.00 0.00 26 1007.3
20260902203056 75 250 6.0 0.0 0.00 0.00 0.00 27 1007.3
20260902201541 76 204 5.0 0.0 0.00 0.00 0.00 26 1007.2
20260902200038 76 239 6.0 0.0 0.00 0.00 0.00 26 1007.4
20260902194526 76 232 7.0 0.0 0.00 0.00 0.00 24 1007.4
20260902193015 76 275 5.0 0.0 0.00 0.00 0.00 26 1007.3
20260902191602 75 238 6.0 0.0 0.00 0.00 0.00 26 1007.5
20260902190055 74 229 8.0 0.0 0.00 0.00 0.00 26 1007.6
20260902184537 74 251 9.0 0.0 0.00 0.00 0.00 25 1007.8
20260902183045 74 190 8.0 0.0 0.00 0.00 0.00 25 1008.0
20260902181516 74 211 7.0 0.0 0.00 0.00 0.00 24 1007.9
20260902180015 73 155 7.0 0.0 0.00 0.00 0.00 25 1008.0
20260902174556 73 263 7.0 0.0 0.00 0.00 0.00 24 1008.1
20260902173058 72 234 6.0 0.0 0.00 0.00 0.00 25 1008.2
20260902171537 72 292 4.0 0.0 0.00 0.00 0.00 25 1007.9
20260902170038 71 194 0.0 0.0 0.00 0.00 0.00 26 1007.9
20260902164519 70 267 0.0 0.0 0.00 0.00 0.00 26 1007.9
20260902163016 70 267 0.0 0.0 0.00 0.00 0.00 26 1007.8
20260902161557 69 281 0.0 0.0 0.00 0.00 0.00 26 1007.7
20260902160105 68 279 2.0 0.0 0.00 0.00 0.00 28 1007.5
20260902154552 67 273 3.0 0.0 0.00 0.00 0.00 27 1007.4
20260902153041 66 292 3.0 0.0 0.00 0.00 0.00 29 1007.2
20260902151539 65 257 1.0 0.0 0.00 0.00 0.00 43 1006.8
20260902150037 65 10 0.0 0.0 0.00 0.00 0.00 47 1006.3
20260902144536 65 9 0.0 0.0 0.00 0.00 0.00 41 1005.8
20260902143036 64 355 0.0 0.0 0.00 0.00 0.00 44 1006.5
20260902141537 63 355 0.0 0.0 0.00 0.00 0.00 53 1006.7
20260902131521 62 355 0.0 0.0 0.00 0.00 0.00 54 1005.2
20260902130030 63 355 0.0 0.0 0.00 0.00 0.00 51 1005.0
20260902124520 64 355 0.0 0.0 0.00 0.00 0.00 48 1005.0
20260902123027 65 355 0.0 0.0 0.00 0.00 0.00 42 1004.6
20260902121559 65 355 0.0 0.0 0.00 0.00 0.00 39 1004.3
20260902120059 63 342 0.0 0.0 0.00 0.00 0.00 47 1004.3
20260902114549 62 342 0.0 0.0 0.00 0.00 0.00 54 1004.6
20260902113037 61 342 0.0 0.0 0.00 0.00 0.00 60 1004.5
20260902111519 61 342 0.0 0.0 0.00 0.00 0.00 71 1004.1
20260902110015 61 342 0.0 0.0 0.00 0.00 0.00 72 1003.8
20260902104600 60 342 0.0 0.0 0.00 0.00 0.00 72 1003.7
20260902103105 60 342 0.0 0.0 0.00 0.00 0.00 71 1003.5
20260902101544 60 342 0.0 0.0 0.00 0.00 0.00 70 1003.5
20260902100035 60 342 0.0 0.0 0.00 0.00 0.00 71 1003.3
20260902094516 59 342 0.0 0.0 0.00 0.00 0.00 72 1003.1
20260902093020 59 342 0.0 0.0 0.00 0.00 0.00 71 1002.9
20260902091600 59 342 0.0 0.0 0.00 0.00 0.00 72 1002.8
20260902090055 59 342 0.0 0.0 0.00 0.00 0.00 72 1002.7
20260902084536 60 342 0.0 0.0 0.00 0.00 0.00 70 1002.7